weather.gov     
National Weather Service

Regional Weather Roundup
NWS Homepage
This page is being discontinued on March 12, 2014.
The same data is available at this site. Please update your bookmarks.
Thank you, and we apologize for the inconvenience.
Please send an email to SR-SRH.Webmaster@noaa.gov with any concerns.


Current Version
Previous Version:    01  02  03  04  05  06  07  08  09  10  11  12  13  14  15  16  17  18  19  20  21  22  23  24  25  26  
[Printable]
599
ASUS46 KPQR 240210
RWROR

OREGON REGIONAL WEATHER ROUNDUP
NATIONAL WEATHER SERVICE PORTLAND OR
600 PM PST SUN NOV 23 2014

NOTE: "FAIR" INDICATES FEW OR NO CLOUDS BELOW 12,000 FEET WITH
NO SIGNIFICANT WEATHER AND/OR OBSTRUCTIONS TO VISIBILITY.

ORZ001>013-240300-
NORTHWEST OREGON


CITY           SKY/WX    TMP DP  RH WIND       PRES   REMARKS
ASTORIA        CLOUDY    44  43  96 SE3       30.28R FOG
NEWPORT        MOCLDY    55  54  94 SW13      30.34S FOG
PORTLAND       CLOUDY    51  49  92 S3        30.31R
VANCOUVER WA   CLOUDY    50  47  89 SE3       30.30R
SCAPPOOSE      CLOUDY    47  46  97 CALM      30.29R FOG
HILLSBORO      CLOUDY    51  47  86 CALM      30.29R FOG
AURORA         CLOUDY    49  48  97 S8        30.31R
MCMINNVILLE    MOCLDY    49  46  90 SW7       30.31R
SALEM          LGT RAIN  51  49  92 S6        30.31R
CORVALLIS      CLOUDY    52  46  82 S8        30.32S
EUGENE         LGT RAIN  51  45  79 S10       30.34S
$$

ORZ021-028-240300-
SOUTHWEST OREGON


CITY           SKY/WX    TMP DP  RH WIND       PRES   REMARKS
NORTH BEND     PTCLDY    52  52 100 SE5       30.37R
BROOKINGS      CLEAR     47  47 100 CALM      30.36R
ROSEBURG       PTCLDY    48  42  80 CALM      30.37R
SEXTON SUMMIT  PTCLDY    40  25  55 NW3       30.33R
MEDFORD        MOCLDY    41  39  93 CALM      30.39R
$$

ORZ009-041-240300-
COLUMBIA GORGE


CITY           SKY/WX    TMP DP  RH WIND       PRES   REMARKS
TROUTDALE      CLOUDY    50  48  93 CALM      30.30R
THE DALLES     PTCLDY    44  39  82 E5        30.24F
$$

ORZ029>031-042>050-061>064-240300-
EASTERN OREGON


CITY           SKY/WX    TMP DP  RH WIND       PRES   REMARKS
REDMOND        MOCLDY    40  29  64 CALM      30.25R
BEND           PTCLDY    41  28  60 SW5       30.27R
PRINEVILLE     MOCLDY    41  28  60 W9G15     30.26S
KLAMATH FALLS  PTCLDY    33  28  81 SE3       30.33R
LAKEVIEW       PTCLDY    30  27  86 S10       30.33S WCI  21
HERMISTON      PTCLDY    49  38  65 W17G25    30.19R
PENDLETON      MOCLDY    43  38  82 W13       30.19R
JOHN DAY       CLOUDY    42  29  58 SW12      30.22R
MEACHAM        CLOUDY    37  36  96 VRB5      30.15R WCI  33
LA GRANDE      CLOUDY    43  28  56 W14       30.18R
BAKER CITY     CLOUDY    33  28  81 N5        30.15S WCI  29
BURNS          MOCLDY    32  26  78 CALM      30.25R
ROME             N/A     35  24  64 S8        30.24R WCI  29
ONTARIO        CLOUDY    34  29  82 CALM      30.23F
$$




U.S. Dept. of Commerce
NOAA National Weather Service
1325 East West Highway
Silver Spring, MD 20910
E-mail: w-nws.webmaster@noaa.gov
Page last modified: May 16, 2007
NATIONAL WEATHER SERVICE: for Safety, for Work, for Fun - FOR LIFE